When you browse on this site, cookies collect data to enhance your experience and personalize the content and advertising you see.
Visit our Privacy Policy to learn more. By continuing to use the site, you agree to this use of cookies and data.

Météo par heure à Rumbek

Ce jour, 14 Juillet, Mardi

Heure Température Précipitation Vent Pression Humidité
00:00 +24°C° 0 mm 1 m/s 720 mmHg 91%
01:00 +24°C° 0 mm 1 m/s 720 mmHg 92%
02:00 +23°C° 0 mm 1 m/s 720 mmHg 93%
03:00 +23°C° 0 mm 1 m/s 720 mmHg 93%
04:00 +21°C° 0 mm 0 m/s 720 mmHg 94%
05:00 +21°C° 0 mm 0 m/s 720 mmHg 95%
06:00 +22°C° 0 mm 0 m/s 721 mmHg 91%
07:00 +23°C° 0 mm 0 m/s 721 mmHg 87%
08:00 +26°C° 0 mm 1 m/s 722 mmHg 83%
09:00 +28°C° 0 mm 1 m/s 722 mmHg 74%
10:00 +30°C° 0 mm 1 m/s 722 mmHg 66%
11:00 +32°C° 0 mm 1 m/s 722 mmHg 57%
12:00 +32°C° 0.2 mm 1 m/s 721 mmHg 57%
13:00 +33°C° 0.2 mm 1 m/s 721 mmHg 57%
14:00 +33°C° 0.2 mm 1 m/s 720 mmHg 56%
15:00 +31°C° 0.7 mm 1 m/s 720 mmHg 65%
16:00 +30°C° 0.7 mm 1 m/s 719 mmHg 73%
17:00 +29°C° 0.7 mm 1 m/s 719 mmHg 81%
18:00 +28°C° 0.2 mm 1 m/s 720 mmHg 83%
19:00 +27°C° 0.2 mm 1 m/s 720 mmHg 86%
20:00 +25°C° 0.2 mm 1 m/s 720 mmHg 88%
21:00 +25°C° 0.3 mm 1 m/s 721 mmHg 90%
22:00 +25°C° 0.3 mm 1 m/s 721 mmHg 92%
23:00 +24°C° 0.3 mm 1 m/s 722 mmHg 93%

Demain, 15 Juillet, Mercredi

Heure Température Précipitation Vent Pression Humidité
00:00 +24°C° 0.2 mm 1 m/s 721 mmHg 93%
01:00 +24°C° 0.2 mm 1 m/s 721 mmHg 93%
02:00 +24°C° 0.2 mm 1 m/s 721 mmHg 92%
03:00 +23°C° 0.1 mm 1 m/s 721 mmHg 93%
04:00 +23°C° 0.1 mm 1 m/s 721 mmHg 93%
05:00 +23°C° 0.1 mm 1 m/s 721 mmHg 94%
06:00 +23°C° 0.1 mm 1 m/s 722 mmHg 92%
07:00 +24°C° 0.1 mm 1 m/s 723 mmHg 90%
08:00 +25°C° 0.1 mm 1 m/s 723 mmHg 88%
09:00 +26°C° 0.6 mm 1 m/s 723 mmHg 87%
10:00 +26°C° 0.6 mm 1 m/s 723 mmHg 87%
11:00 +27°C° 0.6 mm 1 m/s 723 mmHg 87%
12:00 +28°C° 0.2 mm 1 m/s 723 mmHg 82%
13:00 +28°C° 0.2 mm 1 m/s 723 mmHg 76%
14:00 +29°C° 0.2 mm 1 m/s 722 mmHg 71%
15:00 +29°C° 0.2 mm 1 m/s 722 mmHg 74%
16:00 +29°C° 0.2 mm 1 m/s 721 mmHg 76%
17:00 +27°C° 0.2 mm 0 m/s 721 mmHg 79%
18:00 +28°C° 0 mm 1 m/s 721 mmHg 81%
19:00 +27°C° 0 mm 1 m/s 722 mmHg 83%
20:00 +26°C° 0 mm 1 m/s 722 mmHg 85%
21:00 +25°C° 0 mm 1 m/s 722 mmHg 86%
22:00 +25°C° 0 mm 1 m/s 723 mmHg 87%
23:00 +25°C° 0 mm 1 m/s 723 mmHg 88%

Après-demain, 16 Juillet, Jeudi

Heure Température Précipitation Vent Pression Humidité
00:00 +24°C° 0 mm 1 m/s 723 mmHg 90%
01:00 +24°C° 0 mm 1 m/s 722 mmHg 91%
02:00 +24°C° 0 mm 1 m/s 722 mmHg 92%
03:00 +24°C° 0 mm 1 m/s 722 mmHg 92%
04:00 +24°C° 0 mm 1 m/s 722 mmHg 91%
05:00 +24°C° 0 mm 1 m/s 722 mmHg 91%
06:00 +25°C° 0 mm 1 m/s 723 mmHg 88%
07:00 +23°C° 0 mm 0 m/s 723 mmHg 85%
08:00 +24°C° 0 mm 0 m/s 724 mmHg 81%
09:00 +27°C° 1.5 mm 1 m/s 724 mmHg 82%
10:00 +27°C° 1.5 mm 2 m/s 724 mmHg 83%
11:00 +27°C° 1.5 mm 2 m/s 724 mmHg 84%
12:00 +27°C° 1.5 mm 2 m/s 724 mmHg 86%
13:00 +26°C° 1.5 mm 2 m/s 723 mmHg 89%
14:00 +26°C° 1.5 mm 2 m/s 723 mmHg 91%
15:00 +25°C° 0.9 mm 2 m/s 722 mmHg 93%
16:00 +25°C° 0.9 mm 2 m/s 722 mmHg 94%
17:00 +24°C° 0.9 mm 2 m/s 722 mmHg 96%
18:00 +24°C° 0.1 mm 1 m/s 722 mmHg 96%
19:00 +24°C° 0.1 mm 1 m/s 723 mmHg 97%
20:00 +23°C° 0.1 mm 1 m/s 723 mmHg 97%
21:00 +23°C° 0.1 mm 1 m/s 723 mmHg 97%
22:00 +23°C° 0.1 mm 1 m/s 723 mmHg 97%
23:00 +23°C° 0.1 mm 2 m/s 723 mmHg 97%

17 Juillet, Vendredi

Heure Température Précipitation Vent Pression Humidité
00:00 +23°C° 0.2 mm 1 m/s 722 mmHg 97%
01:00 +23°C° 0.2 mm 1 m/s 722 mmHg 97%
02:00 +23°C° 0.2 mm 1 m/s 721 mmHg 97%
03:00 +23°C° 0.2 mm 1 m/s 722 mmHg 97%
04:00 +23°C° 0.2 mm 1 m/s 722 mmHg 96%
05:00 +21°C° 0.2 mm 0 m/s 722 mmHg 96%
06:00 +23°C° 0.1 mm 1 m/s 723 mmHg 96%
07:00 +23°C° 0.1 mm 1 m/s 723 mmHg 95%
08:00 +24°C° 0.1 mm 1 m/s 724 mmHg 95%
09:00 +24°C° 0.8 mm 1 m/s 724 mmHg 95%
10:00 +24°C° 0.8 mm 2 m/s 724 mmHg 95%
11:00 +24°C° 0.8 mm 2 m/s 724 mmHg 95%
12:00 +24°C° 0.5 mm 2 m/s 723 mmHg 95%
13:00 +24°C° 0.5 mm 2 m/s 723 mmHg 95%
14:00 +22°C° 0.5 mm 3 m/s 722 mmHg 95%
15:00 +23°C° 0.3 mm 2 m/s 722 mmHg 96%
16:00 +23°C° 0.3 mm 2 m/s 721 mmHg 96%
17:00 +23°C° 0.3 mm 2 m/s 721 mmHg 97%
18:00 +23°C° 0 mm 2 m/s 721 mmHg 97%
19:00 +23°C° 0 mm 1 m/s 721 mmHg 97%
20:00 +22°C° 0 mm 1 m/s 722 mmHg 97%
21:00 +22°C° 0 mm 1 m/s 722 mmHg 97%
22:00 +20°C° 0 mm 0 m/s 722 mmHg 97%
23:00 +20°C° 0 mm 0 m/s 722 mmHg 97%

18 Juillet, Samedi

Heure Température Précipitation Vent Pression Humidité
00:00 +20°C° 0 mm 0 m/s 722 mmHg 97%
01:00 +20°C° 0 mm 0 m/s 722 mmHg 97%
02:00 +20°C° 0 mm 0 m/s 722 mmHg 97%
03:00 +20°C° 0 mm 0 m/s 722 mmHg 97%
04:00 +20°C° 0 mm 0 m/s 722 mmHg 97%
05:00 +22°C° 0 mm 1 m/s 722 mmHg 97%
06:00 +22°C° 0 mm 1 m/s 723 mmHg 95%
07:00 +23°C° 0 mm 1 m/s 723 mmHg 94%
08:00 +24°C° 0 mm 1 m/s 724 mmHg 92%
09:00 +25°C° 0.5 mm 1 m/s 724 mmHg 89%
10:00 +26°C° 0.5 mm 2 m/s 723 mmHg 86%
11:00 +27°C° 0.5 mm 2 m/s 723 mmHg 84%
12:00 +27°C° 1.5 mm 2 m/s 723 mmHg 85%
13:00 +27°C° 1.5 mm 2 m/s 722 mmHg 87%
14:00 +27°C° 1.5 mm 2 m/s 721 mmHg 88%
15:00 +26°C° 1.2 mm 1 m/s 721 mmHg 89%
16:00 +26°C° 1.2 mm 1 m/s 721 mmHg 91%
17:00 +25°C° 1.2 mm 1 m/s 720 mmHg 92%
18:00 +25°C° 0.2 mm 1 m/s 721 mmHg 92%
19:00 +24°C° 0.2 mm 1 m/s 721 mmHg 93%
20:00 +23°C° 0.2 mm 1 m/s 722 mmHg 94%
21:00 +23°C° 0.1 mm 1 m/s 722 mmHg 94%
22:00 +23°C° 0.1 mm 1 m/s 722 mmHg 94%
23:00 +23°C° 0.1 mm 1 m/s 722 mmHg 95%

19 Juillet, Dimanche

Heure Température Précipitation Vent Pression Humidité
00:00 +23°C° 0 mm 1 m/s 722 mmHg 95%
01:00 +23°C° 0 mm 1 m/s 722 mmHg 96%
02:00 +22°C° 0 mm 1 m/s 721 mmHg 96%
03:00 +22°C° 0 mm 1 m/s 721 mmHg 96%
04:00 +22°C° 0 mm 1 m/s 722 mmHg 96%
05:00 +22°C° 0 mm 1 m/s 722 mmHg 96%
06:00 +23°C° 0 mm 1 m/s 722 mmHg 95%
07:00 +23°C° 0 mm 1 m/s 723 mmHg 95%
08:00 +23°C° 0 mm 1 m/s 724 mmHg 94%
09:00 +24°C° 0.5 mm 1 m/s 724 mmHg 94%
10:00 +24°C° 0.5 mm 1 m/s 723 mmHg 94%
11:00 +24°C° 0.5 mm 1 m/s 723 mmHg 94%
12:00 +25°C° 0.7 mm 2 m/s 723 mmHg 92%
13:00 +25°C° 0.7 mm 2 m/s 722 mmHg 90%
14:00 +26°C° 0.7 mm 2 m/s 722 mmHg 89%
15:00 +25°C° 0.7 mm 2 m/s 722 mmHg 89%
16:00 +25°C° 0.7 mm 2 m/s 722 mmHg 90%
17:00 +25°C° 0.7 mm 2 m/s 722 mmHg 91%
18:00 +24°C° 0.2 mm 2 m/s 722 mmHg 93%
19:00 +23°C° 0.2 mm 2 m/s 722 mmHg 95%
20:00 +23°C° 0.2 mm 1 m/s 722 mmHg 98%
21:00 +22°C° 0 mm 1 m/s 722 mmHg 97%
22:00 +22°C° 0 mm 1 m/s 722 mmHg 97%
23:00 +22°C° 0 mm 1 m/s 722 mmHg 97%
Voir plus